PRISMA (MANGO)

Satellite information

Favourite Embed

Satellite Type and Status

PAYLOADIN ORBIT

Key statistics

Satellite PRISMA (MANGO) at a glance.

Uptime

5443

Days in orbit

Revolutions

≈ 14.6

Per day

Orbit

SSO

Sun Synchronous Orbit

Inclination

98.1

Latest

Satellite identification and parameters

Extended collection of information and parameters for PRISMA (MANGO).

Object identification

Identified? True

Debris? False

Object name: PRISMA (MANGO)

International designator: 2010-028B

Object number (NORAD): 36599

Object ID (CCSDS): 36599

Country: SWEDEN (SWED)

Current information (Y/N): Y

RCS size: MEDIUM

Orbital parameters

Period: 98.725 minutes

Inclination: 98.0502 deg

SMA: 7075.836 km

Apoapsis: 735.914 km

Periapsis: 659.489 km

RAAN: 337.361 deg

Eccentricy: 0.0054004

Argument of periapsis: 29.8046 deg

Mean anomaly: 330.6211 deg

Mean motion: 14.58599596 rev/day

Mean motion (dot): 0.00000541 rev/day2

B* drag term: 0.00012388 1/REarth

Two-line elements (TLE)

Creation date: May 10, 2025, 2:32 a.m.

Reference frame: TEME

Reference center: EARTH

Epoch: May 9, 2025, 1:32 p.m. UTC

TLE line 0: 0 PRISMA (MANGO)

TLE line 1: 1 36599U 10028B 25129.56389790 .00000541 00000-0 12388-3 0 9994

TLE line 2: 2 36599 98.0502 337.3610 0054004 29.8046 330.6211 14.58599596790321

Live tracking on map

Real-time ground track for satellite PRISMA (MANGO).

In-orbit conjunctions

There are no conjunctions computed for PRISMA (MANGO), at the moment. Check back to stay up to date, as we update our databases every day.

Go to all conjunctions

Associated space launch

PRISMA (MANGO) was lifted into orbit during the mission ‘Dnepr 1 | Prisma-Mango, Prisma-Tango, Picard, BPA-1’, on board a Dnepr space rocket.

The launch took place on June 15, 2010, 2:42 p.m. from 370/13.

For more information about the launch, click the button.

Launch to space Dnepr 1 | Prisma-Mango, Prisma-Tango, Picard, BPA-1
Dnepr 1 | Prisma-Mango, Prisma-Tango, Picard, BPA-1

Agency: N/A

Status: Launch Successful

Launch date: June 15, 2010, 2:42 p.m. UTC

Rocket: Dnepr

Launch pad: 370/13

Location: Dombarovskiy, Russian Federation

...

Latest news about this satellite

There are no fresh news available about this satellite. Check back as we update our databases every day.


Newsletter sign-up

Weekly statistics, charts and insights to help you stay on top of the space industry.